Location: Sangrey
(48.2845°N, 109.8206°W)
Time: 14:42:05
(UTC+00:00)

ISS - Visible Passes

Search period start: 22 January 2022 00:00
Search period end: 01 February 2022 00:00
Orbit: 413 x 422 km, 51.6° (Epoch: 22 January)

Date Brightness Start Highest point End Pass type
(mag) Time Alt. Az. Time Alt. Az. Time Alt. Az.
22 Jan -3.9 01:46:44 10° WSW 01:50:03 77° SSE 01:50:36 58° E visible
23 Jan -3.4 00:58:52 10° SW 01:02:07 53° SSE 01:04:39 15° ENE visible
23 Jan -1.9 02:35:40 10° W 02:37:35 30° WNW 02:37:35 30° WNW visible
24 Jan -3.6 01:47:35 10° W 01:50:53 62° NNW 01:51:36 47° NE visible
25 Jan -3.8 00:59:32 10° WSW 01:02:52 79° NNW 01:05:35 15° ENE visible
25 Jan -1.8 02:36:40 10° WNW 02:38:31 27° WNW 02:38:31 27° WNW visible
26 Jan -3.2 01:48:35 10° W 01:51:50 46° N 01:52:30 39° NNE visible
27 Jan -3.3 01:00:29 10° W 01:03:46 52° N 01:06:29 14° ENE visible
27 Jan -1.9 02:37:36 10° WNW 02:39:25 28° NW 02:39:25 28° NW visible
28 Jan -3.3 01:49:34 10° WNW 01:52:48 45° N 01:53:25 40° NE visible
29 Jan -3.2 01:01:30 10° WNW 01:04:43 44° N 01:07:27 14° ENE visible
29 Jan -2.1 02:38:25 10° WNW 02:40:23 32° WNW 02:40:23 32° WNW visible
30 Jan -3.6 01:50:26 10° WNW 01:53:45 58° NNE 01:54:28 45° ENE visible
30 Jan -0.2 03:27:19 10° WNW 03:27:24 11° WNW 03:27:24 11° WNW visible
31 Jan -3.4 01:02:26 10° WNW 01:05:42 50° N 01:08:36 12° E visible
31 Jan -2.3 02:39:15 10° WNW 02:41:33 38° W 02:41:33 38° W visible
